Springfield, OH

9:12 AM EST on December 11, 2016 (GMT -0500)
Springfield-Beckley Municipal

Weather History for KSGH - December, 2012

Change the Weather History Date:

Wednesday, December 5, 2012

  Actual Average (KFFO) Record (KFFO)
Temperature  
Mean Temperature 31 °F -  
Max Temperature 38 °F 43 °F 68 °F (2001)
Min Temperature 24 °F 28 °F 14 °F (2008)
Degree Days  
Heating Degree Days 34    
Moisture  
Dew Point 29 °F    
Average Humidity 83    
Maximum Humidity 100    
Minimum Humidity 55    
Precipitation  
Precipitation 0.00 in - - ()
Sea Level Pressure  
Sea Level Pressure 30.32 in    
Wind  
Wind Speed 7 mph (NNW)    
Max Wind Speed 12 mph    
Max Gust Speed -    
Visibility 6 miles    
Events      
Averages and records for this station are not official NWS values.
T = Trace of Precipitation, MM = Missing Value Source: NWS Daily Summary

Daily Weather History Graph

Daily Weather History Graph

Search for Another Location

Airport or City:

Trip Planner

Search our weather history database for the weather conditions in past years. The results will help you decide how hot, cold, wet, or windy it might be!

Date:

Astronomy

Dec. 05, 2012 Rise Set
Actual Time 7:41 AM EST 5:10 PM EST
Civil Twilight 7:11 AM EST 5:40 PM EST
Nautical Twilight 6:38 AM EST 6:14 PM EST
Astronomical Twilight 6:05 AM EST 6:47 PM EST
Moon 11:58 PM EST (12/5) 12:05 PM EST (12/5)
Length of Visible Light 10h 28m
Length of Day
9h 28m
Waning Gibbous, 60% of the Moon is Illuminated
Dec 5
Waning Gibbous
Dec 6
Last Quarter
Dec 13
New
Dec 20
First Quarter
Dec 28
Full

Hourly Weather History & Observations

Time (EST) Temp. Windchill Dew Point Humidity Pressure Visibility Wind Dir Wind Speed Gust Speed Precip Events Conditions
12:31 AM 35.6 °F 30.7 °F 33.8 °F 93% 30.20 in 2.0 mi SW 5.8 mph - N/A   Clear
12:41 AM 35.6 °F 29.9 °F 35.6 °F 100% 30.21 in 1.5 mi SW 6.9 mph - N/A   Clear
12:49 AM 37.4 °F 32.1 °F 35.6 °F 93% 30.21 in 3.0 mi SW 6.9 mph - N/A   Clear
12:56 AM 37.9 °F 32.7 °F 36.0 °F 93% 30.22 in 4.0 mi SW 6.9 mph - N/A   Clear
1:34 AM 35.6 °F 29.9 °F 33.8 °F 93% 30.21 in 2.5 mi WSW 6.9 mph - N/A   Clear
1:45 AM 35.6 °F 29.9 °F 35.6 °F 100% 30.22 in 4.0 mi WSW 6.9 mph - N/A   Clear
1:56 AM 36.0 °F 30.3 °F 34.9 °F 96% 30.23 in 4.0 mi WSW 6.9 mph - N/A   Clear
2:56 AM 34.9 °F 29.9 °F 34.0 °F 97% 30.26 in 4.0 mi SW 5.8 mph - N/A   Clear
3:56 AM 34.0 °F 28.0 °F 32.9 °F 96% 30.28 in 4.0 mi SW 6.9 mph - N/A   Clear
4:56 AM 32.9 °F 26.7 °F 32.0 °F 96% 30.28 in 5.0 mi West 6.9 mph - N/A   Clear
5:56 AM 32.9 °F 27.5 °F 31.1 °F 93% 30.30 in 6.0 mi West 5.8 mph - N/A   Clear
6:56 AM 32.9 °F 27.5 °F 30.0 °F 89% 30.31 in 6.0 mi North 5.8 mph - N/A   Clear
7:56 AM 32.9 °F 25.9 °F 29.1 °F 86% 30.35 in 6.0 mi NNW 8.1 mph - N/A   Clear
9:56 AM 36.9 °F 29.1 °F 30.0 °F 76% 30.38 in 6.0 mi North 11.5 mph - N/A   Haze
10:25 AM 37.4 °F 31.4 °F 30.2 °F 75% 30.37 in 6.0 mi NNW 8.1 mph - N/A   Haze
10:56 AM 36.0 °F 29.0 °F 29.1 °F 76% 30.40 in 6.0 mi North 9.2 mph - N/A   Haze
11:22 AM 37.4 °F 31.4 °F 30.2 °F 75% 30.37 in 6.0 mi North 8.1 mph - N/A   Haze
11:56 AM 38.8 °F 33.2 °F 29.1 °F 68% 30.39 in 6.0 mi North 8.1 mph - N/A   Haze
12:56 PM 38.8 °F 33.2 °F 27.1 °F 63% 30.37 in 6.0 mi NNE 8.1 mph - N/A   Haze
1:56 PM 38.8 °F 35.4 °F 24.1 °F 55% 30.37 in 7.0 mi North 4.6 mph - N/A   Clear
2:56 PM 38.8 °F 33.8 °F 27.1 °F 63% 30.37 in 7.0 mi North 6.9 mph - N/A   Partly Cloudy
3:56 PM 38.8 °F 33.2 °F 26.1 °F 60% 30.37 in 6.0 mi North 8.1 mph - N/A   Haze
4:56 PM 34.9 °F 27.7 °F 25.2 °F 68% 30.37 in 6.0 mi NE 9.2 mph - N/A   Haze
5:56 PM 29.1 °F 21.3 °F 24.1 °F 81% 30.39 in 7.0 mi NE 8.1 mph - N/A   Clear
6:56 PM 27.1 °F 19.7 °F 23.0 °F 84% 30.39 in 8.0 mi NE 6.9 mph - N/A   Clear
7:56 PM 26.1 °F 20.5 °F 22.1 °F 85% 30.38 in 7.0 mi East 4.6 mph - N/A   Clear
8:56 PM 25.2 °F 17.3 °F 21.0 °F 84% 30.37 in 7.0 mi ENE 6.9 mph - N/A   Clear
9:56 PM 24.1 °F 16.0 °F 20.1 °F 85% 30.37 in 7.0 mi ENE 6.9 mph - N/A   Clear
10:56 PM 24.1 °F 15.2 °F 20.1 °F 85% 30.36 in 7.0 mi ENE 8.1 mph - N/A   Clear
11:56 PM 24.1 °F 15.2 °F 20.1 °F 85% 30.35 in 7.0 mi East 8.1 mph - N/A   Clear